When you browse on this site, cookies collect data to enhance your experience and personalize the content and advertising you see.
Visit our Privacy Policy to learn more. By continuing to use the site, you agree to this use of cookies and data.
EN

Hourly Weather Debowiec

Today, 11 August, Tuesday

Time Temperature Precipitation Wind Pressure Humidity
00:00 +17°C° 0 mm 3 mps 754 mmHg 89%
01:00 +17°C° 0 mm 3 mps 754 mmHg 90%
02:00 +16°C° 0 mm 3 mps 754 mmHg 91%
03:00 +16°C° 0 mm 3 mps 754 mmHg 92%
04:00 +16°C° 0 mm 3 mps 754 mmHg 92%
05:00 +16°C° 0 mm 3 mps 754 mmHg 87%
06:00 +17°C° 0 mm 3 mps 755 mmHg 82%
07:00 +18°C° 0 mm 3 mps 755 mmHg 77%
08:00 +19°C° 0 mm 3 mps 755 mmHg 74%
09:00 +20°C° 0 mm 4 mps 755 mmHg 70%
10:00 +21°C° 0 mm 4 mps 755 mmHg 67%
11:00 +22°C° 0 mm 4 mps 755 mmHg 65%
12:00 +22°C° 0 mm 4 mps 755 mmHg 62%
13:00 +23°C° 0 mm 4 mps 755 mmHg 60%
14:00 +23°C° 0 mm 4 mps 755 mmHg 60%
15:00 +23°C° 0 mm 4 mps 755 mmHg 59%
16:00 +22°C° 0 mm 4 mps 755 mmHg 59%
17:00 +21°C° 0 mm 4 mps 755 mmHg 67%
18:00 +19°C° 0 mm 4 mps 755 mmHg 75%
19:00 +18°C° 0 mm 3 mps 755 mmHg 83%
20:00 +17°C° 0 mm 3 mps 756 mmHg 85%
21:00 +16°C° 0 mm 3 mps 756 mmHg 88%
22:00 +16°C° 0 mm 2 mps 756 mmHg 90%
23:00 +15°C° 0 mm 2 mps 756 mmHg 90%

Tomorrow, 12 August, Wednesday

Time Temperature Precipitation Wind Pressure Humidity
00:00 +15°C° 0 mm 2 mps 756 mmHg 90%
01:00 +15°C° 0 mm 2 mps 756 mmHg 91%
02:00 +14°C° 0 mm 2 mps 756 mmHg 89%
03:00 +14°C° 0 mm 2 mps 756 mmHg 88%
04:00 +13°C° 0 mm 2 mps 756 mmHg 87%
05:00 +14°C° 0 mm 2 mps 756 mmHg 82%
06:00 +16°C° 0 mm 1 mps 756 mmHg 77%
07:00 +18°C° 0 mm 1 mps 756 mmHg 72%
08:00 +18°C° 0 mm 2 mps 756 mmHg 68%
09:00 +19°C° 0 mm 2 mps 756 mmHg 64%
10:00 +21°C° 0 mm 3 mps 756 mmHg 60%
11:00 +21°C° 0 mm 2 mps 756 mmHg 57%
12:00 +23°C° 0 mm 2 mps 756 mmHg 55%
13:00 +23°C° 0 mm 2 mps 756 mmHg 52%
14:00 +23°C° 0 mm 2 mps 756 mmHg 53%
15:00 +23°C° 0 mm 2 mps 756 mmHg 54%
16:00 +23°C° 0 mm 2 mps 755 mmHg 55%
17:00 +20°C° 0 mm 2 mps 755 mmHg 63%
18:00 +19°C° 0 mm 2 mps 755 mmHg 70%
19:00 +17°C° 0 mm 2 mps 755 mmHg 77%
20:00 +16°C° 0 mm 2 mps 755 mmHg 79%
21:00 +15°C° 0 mm 2 mps 755 mmHg 80%
22:00 +14°C° 0 mm 2 mps 755 mmHg 82%
23:00 +14°C° 0 mm 2 mps 755 mmHg 84%

Day after tomorrow, 13 August, Thursday

Time Temperature Precipitation Wind Pressure Humidity
00:00 +14°C° 0 mm 2 mps 755 mmHg 86%
01:00 +13°C° 0 mm 2 mps 755 mmHg 89%
02:00 +13°C° 0 mm 2 mps 755 mmHg 89%
03:00 +13°C° 0 mm 2 mps 755 mmHg 90%
04:00 +12°C° 0 mm 2 mps 754 mmHg 90%
05:00 +14°C° 0 mm 2 mps 754 mmHg 85%
06:00 +15°C° 0 mm 2 mps 754 mmHg 80%
07:00 +17°C° 0 mm 2 mps 754 mmHg 75%
08:00 +18°C° 0 mm 2 mps 754 mmHg 70%
09:00 +20°C° 0 mm 2 mps 754 mmHg 65%
10:00 +21°C° 0 mm 2 mps 754 mmHg 59%
11:00 +23°C° 0 mm 2 mps 754 mmHg 56%
12:00 +23°C° 0 mm 2 mps 754 mmHg 53%
13:00 +24°C° 0 mm 1 mps 753 mmHg 49%
14:00 +24°C° 0 mm 1 mps 753 mmHg 50%
15:00 +24°C° 0 mm 2 mps 753 mmHg 50%
16:00 +24°C° 0 mm 2 mps 753 mmHg 51%
17:00 +21°C° 0 mm 2 mps 753 mmHg 58%
18:00 +20°C° 0 mm 2 mps 752 mmHg 65%
19:00 +18°C° 0 mm 3 mps 752 mmHg 71%
20:00 +17°C° 0 mm 3 mps 752 mmHg 75%
21:00 +16°C° 0 mm 3 mps 752 mmHg 78%
22:00 +14°C° 0 mm 3 mps 752 mmHg 82%
23:00 +14°C° 0 mm 3 mps 752 mmHg 84%

14 August, Friday

Time Temperature Precipitation Wind Pressure Humidity
00:00 +13°C° 0 mm 3 mps 752 mmHg 86%
01:00 +13°C° 0 mm 3 mps 752 mmHg 88%
02:00 +13°C° 0 mm 3 mps 752 mmHg 89%
03:00 +13°C° 0 mm 2 mps 752 mmHg 90%
04:00 +13°C° 0 mm 2 mps 752 mmHg 91%
05:00 +15°C° 0 mm 2 mps 752 mmHg 86%
06:00 +16°C° 0 mm 2 mps 752 mmHg 82%
07:00 +17°C° 0 mm 2 mps 752 mmHg 77%
08:00 +19°C° 0 mm 2 mps 752 mmHg 71%
09:00 +21°C° 0 mm 2 mps 752 mmHg 65%
10:00 +24°C° 0 mm 2 mps 752 mmHg 58%
11:00 +25°C° 0 mm 2 mps 752 mmHg 55%
12:00 +25°C° 0 mm 2 mps 752 mmHg 52%
13:00 +26°C° 0 mm 2 mps 752 mmHg 48%
14:00 +26°C° 0 mm 2 mps 751 mmHg 50%
15:00 +26°C° 0 mm 2 mps 751 mmHg 52%
16:00 +26°C° 0 mm 2 mps 751 mmHg 54%
17:00 +24°C° 0 mm 2 mps 751 mmHg 60%
18:00 +21°C° 0 mm 2 mps 751 mmHg 65%
19:00 +20°C° 0 mm 2 mps 751 mmHg 71%
20:00 +19°C° 0 mm 3 mps 751 mmHg 71%
21:00 +18°C° 0 mm 3 mps 751 mmHg 72%
22:00 +18°C° 0 mm 3 mps 751 mmHg 72%
23:00 +17°C° 0 mm 3 mps 751 mmHg 73%

15 August, Saturday

Time Temperature Precipitation Wind Pressure Humidity
00:00 +17°C° 0 mm 3 mps 751 mmHg 73%
01:00 +16°C° 0 mm 3 mps 751 mmHg 74%
02:00 +16°C° 0 mm 3 mps 751 mmHg 76%
03:00 +15°C° 0 mm 2 mps 751 mmHg 78%
04:00 +15°C° 0 mm 2 mps 751 mmHg 80%
05:00 +16°C° 0 mm 2 mps 751 mmHg 77%
06:00 +17°C° 0 mm 2 mps 751 mmHg 75%
07:00 +18°C° 0 mm 2 mps 751 mmHg 72%
08:00 +20°C° 0 mm 2 mps 752 mmHg 67%
09:00 +21°C° 0 mm 3 mps 752 mmHg 61%
10:00 +24°C° 0 mm 3 mps 752 mmHg 56%
11:00 +24°C° 0 mm 3 mps 752 mmHg 53%
12:00 +25°C° 0 mm 3 mps 752 mmHg 50%
13:00 +26°C° 0 mm 3 mps 751 mmHg 48%
14:00 +26°C° 0 mm 3 mps 751 mmHg 49%
15:00 +26°C° 0 mm 3 mps 751 mmHg 50%
16:00 +26°C° 0 mm 3 mps 751 mmHg 51%
17:00 +24°C° 0 mm 3 mps 751 mmHg 58%
18:00 +21°C° 0 mm 2 mps 751 mmHg 65%
19:00 +19°C° 0 mm 2 mps 751 mmHg 72%
20:00 +18°C° 0 mm 2 mps 751 mmHg 74%
21:00 +18°C° 0 mm 2 mps 751 mmHg 76%
22:00 +17°C° 0 mm 2 mps 751 mmHg 79%
23:00 +16°C° 0 mm 2 mps 751 mmHg 79%

16 August, Sunday

Time Temperature Precipitation Wind Pressure Humidity
00:00 +16°C° 0 mm 2 mps 751 mmHg 79%
01:00 +16°C° 0 mm 1 mps 751 mmHg 80%
02:00 +15°C° 0 mm 1 mps 751 mmHg 80%
03:00 +15°C° 0 mm 1 mps 751 mmHg 81%
04:00 +15°C° 0 mm 1 mps 751 mmHg 81%
05:00 +16°C° 0 mm 1 mps 751 mmHg 78%
06:00 +19°C° 0 mm 1 mps 751 mmHg 74%
07:00 +20°C° 0 mm 1 mps 751 mmHg 70%
08:00 +21°C° 0 mm 1 mps 752 mmHg 66%
09:00 +23°C° 0 mm 1 mps 752 mmHg 61%
10:00 +24°C° 0 mm 2 mps 752 mmHg 57%
11:00 +25°C° 0 mm 2 mps 752 mmHg 55%
12:00 +26°C° 0 mm 2 mps 752 mmHg 53%
13:00 +26°C° 0 mm 2 mps 752 mmHg 51%
14:00 +26°C° 0 mm 2 mps 751 mmHg 52%
15:00 +26°C° 0 mm 2 mps 751 mmHg 54%
16:00 +26°C° 0 mm 3 mps 751 mmHg 56%
17:00 +24°C° 0 mm 3 mps 751 mmHg 63%
18:00 +21°C° 0 mm 3 mps 751 mmHg 70%
19:00 +19°C° 0 mm 3 mps 751 mmHg 78%
20:00 +18°C° 0 mm 3 mps 751 mmHg 79%
21:00 +17°C° 0 mm 2 mps 752 mmHg 80%
22:00 +17°C° 0 mm 2 mps 752 mmHg 81%
23:00 +16°C° 0 mm 2 mps 752 mmHg 82%
Show more